Location: Casaglia
(44.0333°N, 11.5167°E)
Time: 11:14:38
(UTC+00:00)

ISS - Visible Passes

Search period start: 30 July 2021 00:00
Search period end: 09 August 2021 00:00
Orbit: 419 x 421 km, 51.6° (Epoch: 30 July)

Date Brightness Start Highest point End Pass type
(mag) Time Alt. Az. Time Alt. Az. Time Alt. Az.
30 Jul -3.0 20:26:21 10° WNW 20:29:32 39° SW 20:30:19 33° S visible
31 Jul -3.6 19:38:56 10° WNW 19:42:17 65° SW 19:44:45 17° SE visible
01 Aug -1.5 20:29:24 10° W 20:31:24 15° SW 20:32:12 14° SSW visible
02 Aug -2.0 19:41:28 10° W 19:44:15 24° SW 19:46:45 12° S visible
